GSAT-15 (GAGAN/PRN 139)

Last updated on Jan. 25, 2020, 4:44 a.m. UTC

1 41028U 15065A   20024.36299376 -.00000266  00000-0  00000-0 0  9990
2 41028   0.0708 271.2416 0001345 314.8486 121.1918  1.00270588 15406
UTC
Height (km)
Latitude
Longitude
Inclination
Orbital Period
UTC large
Height (km)
Speed (km/s)
/
Latitude / Longitude
Inclination (degrees)
Orbital Period (minutes)
Azimuth
Elevation
Range (km)
Doppler Factor
iOS Compass Heading
iOS Angle

Next 30 passes for location: Hong Kong

Rise time Rise Azimuth (degrees) Set time Set Azimuth (degrees) Duration Max altitude (degrees)

No matching passes for this satellites